Retour au catalogue

OFEQ 19

ActifMilitaireVLEO
NORAD 65432·PAYLOAD·🇮🇱 Israel

Lancé Sep 2, 2025 depuis Palmachim Airbase

Loading…

Prochains Passages (prochaines 24 heures)

TLE

PériméSource: Mike McCants

Époque: Apr 23, 2026, 01:11 UTC

1 65432U 25193A   26113.04990462 0.00000000  00000-0  00000-0 0    00
2 65432 139.1454 248.1956 0067143 275.3630  83.9536 15.10508836    02

Suivez OFEQ 19 en temps réel avec AllMySat

Download on the App Store